User: anonymous   Login
Location: Unspecified
(0.0000°N, 0.0000°E)
Time: 09:27:42
(UTC+00:00)
Language:

Chunghua 1 - Orbit

View from above orbital plane
View from above orbital plane
View from above satellite
View from above satellite

Ground track
Ground track

The orbit data is extracted from the following two-line orbital elements,

1 25616U 99002A   18018.62129190 +.00001188 +00000-0 +44131-4 0  9993
2 25616 034.9599 221.6264 0025326 276.9538 082.8297 15.27406134042131
Epoch (UTC): 18 January 2018 14:54:39
Eccentricity: 0.0025326
inclination: 34.9599°
perigee height: 466 km
apogee height: 501 km
right ascension of ascending node: 221.6264°
argument of perigee: 276.9538°
revolutions per day: 15.27406134
mean anomaly at epoch: 82.8297°
orbit number at epoch: 4213

The dashed part of the orbit path shows where the satellite is in the earth's shadow,  

DLR